When you browse on this site, cookies collect data to enhance your experience and personalize the content and advertising you see.
Visit our Privacy Policy to learn more. By continuing to use the site, you agree to this use of cookies and data.
  • In Hungary
  • List of Countries
  • For 7 days
  • Water Temperature
  • Satellite Maps
  • Weather Map
  • News
  • Weather Widgets
  • user-avatar
    Login

    Hourly Weather Madang

    Today, 17 November, Saturday

    Time Temperature Precipitation Wind Pressure Humidity
    00:00 +27°C° 1.5 mm 1 mps 756 mmHg 98%
    01:00 +26°C° 1.5 mm 1 mps 756 mmHg 98%
    02:00 +26°C° 1.4 mm 1 mps 756 mmHg 98%
    03:00 +26°C° 1.4 mm 1 mps 756 mmHg 98%
    04:00 +26°C° 0 mm 1 mps 756 mmHg 98%
    05:00 +27°C° 1.3 mm 1 mps 756 mmHg 97%
    06:00 +27°C° 1.3 mm 1 mps 757 mmHg 96%
    07:00 +27°C° 1.3 mm 1 mps 757 mmHg 96%
    08:00 +28°C° 0.7 mm 1 mps 757 mmHg 90%
    09:00 +29°C° 0.7 mm 1 mps 757 mmHg 85%
    10:00 +30°C° 0 mm 1 mps 757 mmHg 81%
    11:00 +31°C° 0.4 mm 1 mps 757 mmHg 79%
    12:00 +31°C° 0.4 mm 1 mps 756 mmHg 78%
    13:00 +32°C° 0.4 mm 2 mps 756 mmHg 77%
    14:00 +31°C° 0.5 mm 2 mps 755 mmHg 81%
    15:00 +31°C° 0.5 mm 1 mps 755 mmHg 84%
    16:00 +31°C° 0.5 mm 1 mps 755 mmHg 87%
    17:00 +29°C° 0.8 mm 1 mps 755 mmHg 91%
    18:00 +28°C° 0.8 mm 1 mps 756 mmHg 94%
    19:00 +25°C° 0.8 mm 0 mps 756 mmHg 97%
    20:00 +25°C° 1.4 mm 0 mps 756 mmHg 98%
    21:00 +25°C° 1.4 mm 0 mps 757 mmHg 98%
    22:00 +25°C° 1.4 mm 0 mps 757 mmHg 98%
    23:00 +26°C° 0.6 mm 1 mps 757 mmHg 98%

    Tomorrow, 18 November, Sunday

    Time Temperature Precipitation Wind Pressure Humidity
    00:00 +26°C° 0.6 mm 1 mps 757 mmHg 99%
    01:00 +26°C° 0.6 mm 1 mps 756 mmHg 99%
    02:00 +26°C° 0.3 mm 1 mps 756 mmHg 99%
    03:00 +26°C° 0.3 mm 1 mps 756 mmHg 99%
    04:00 +26°C° 0.3 mm 1 mps 755 mmHg 99%
    05:00 +26°C° 0.1 mm 1 mps 756 mmHg 98%
    06:00 +27°C° 0.1 mm 1 mps 756 mmHg 98%
    07:00 +25°C° 0.1 mm 0 mps 756 mmHg 97%
    08:00 +29°C° 0.4 mm 1 mps 756 mmHg 88%
    09:00 +31°C° 0.4 mm 1 mps 756 mmHg 79%
    10:00 +35°C° 0.4 mm 2 mps 756 mmHg 70%
    11:00 +35°C° 0.1 mm 2 mps 756 mmHg 68%
    12:00 +35°C° 0.1 mm 3 mps 755 mmHg 66%
    13:00 +36°C° 0.1 mm 3 mps 755 mmHg 64%
    14:00 +35°C° 0.4 mm 3 mps 754 mmHg 70%
    15:00 +33°C° 0.4 mm 3 mps 754 mmHg 77%
    16:00 +31°C° 0.4 mm 3 mps 754 mmHg 84%
    17:00 +30°C° 0.3 mm 3 mps 755 mmHg 88%
    18:00 +29°C° 0.3 mm 3 mps 755 mmHg 92%
    19:00 +28°C° 0.3 mm 3 mps 756 mmHg 97%
    20:00 +28°C° 0.8 mm 3 mps 756 mmHg 97%
    21:00 +27°C° 0.8 mm 2 mps 757 mmHg 98%
    22:00 +27°C° 0.8 mm 2 mps 757 mmHg 99%
    23:00 +27°C° 0.7 mm 2 mps 757 mmHg 99%

    Day after tomorrow, 19 November, Monday

    Time Temperature Precipitation Wind Pressure Humidity
    00:00 +27°C° 0.7 mm 1 mps 756 mmHg 99%
    01:00 +27°C° 0.7 mm 1 mps 756 mmHg 99%
    02:00 +27°C° 1.4 mm 1 mps 756 mmHg 99%
    03:00 +26°C° 1.4 mm 1 mps 756 mmHg 99%
    04:00 +26°C° 1.4 mm 1 mps 755 mmHg 99%
    05:00 +27°C° 1.3 mm 1 mps 756 mmHg 98%
    06:00 +27°C° 1.3 mm 1 mps 756 mmHg 97%
    07:00 +27°C° 1.3 mm 1 mps 757 mmHg 96%
    08:00 +29°C° 0.9 mm 1 mps 757 mmHg 90%
    09:00 +31°C° 0.9 mm 1 mps 757 mmHg 83%
    10:00 +33°C° 0.9 mm 1 mps 757 mmHg 76%
    11:00 +33°C° 0.4 mm 1 mps 756 mmHg 75%
    12:00 +35°C° 0.4 mm 2 mps 756 mmHg 73%
    13:00 +35°C° 0.4 mm 2 mps 755 mmHg 72%
    14:00 +34°C° 0.7 mm 2 mps 755 mmHg 79%
    15:00 +32°C° 0.7 mm 2 mps 754 mmHg 86%
    16:00 +30°C° 0.7 mm 2 mps 754 mmHg 94%
    17:00 +29°C° 0.6 mm 2 mps 755 mmHg 95%
    18:00 +28°C° 0.6 mm 1 mps 755 mmHg 96%
    19:00 +27°C° 0.6 mm 1 mps 756 mmHg 97%
    20:00 +27°C° 0.5 mm 1 mps 757 mmHg 98%
    21:00 +27°C° 0.5 mm 1 mps 757 mmHg 98%
    22:00 +27°C° 0.5 mm 1 mps 758 mmHg 98%
    23:00 +27°C° 0.6 mm 1 mps 757 mmHg 98%

    20 November, Tuesday

    Time Temperature Precipitation Wind Pressure Humidity
    00:00 +27°C° 0.6 mm 1 mps 757 mmHg 98%
    01:00 +26°C° 0.6 mm 1 mps 757 mmHg 98%
    02:00 +26°C° 0.7 mm 1 mps 757 mmHg 98%
    03:00 +26°C° 0.7 mm 1 mps 756 mmHg 98%
    04:00 +26°C° 0.7 mm 1 mps 756 mmHg 98%
    05:00 +26°C° 0.4 mm 1 mps 757 mmHg 98%
    06:00 +26°C° 0.4 mm 1 mps 757 mmHg 98%
    07:00 +27°C° 0.4 mm 1 mps 758 mmHg 97%
    08:00 +29°C° 0.2 mm 1 mps 758 mmHg 89%
    09:00 +31°C° 0.2 mm 1 mps 758 mmHg 81%
    10:00 +33°C° 0.2 mm 1 mps 758 mmHg 74%
    11:00 +34°C° 0.4 mm 1 mps 757 mmHg 70%
    12:00 +36°C° 0.4 mm 2 mps 756 mmHg 66%
    13:00 +37°C° 0.4 mm 2 mps 756 mmHg 62%
    14:00 +36°C° 0.6 mm 2 mps 755 mmHg 66%
    15:00 +35°C° 0.6 mm 2 mps 755 mmHg 71%
    16:00 +34°C° 0.6 mm 3 mps 754 mmHg 75%
    17:00 +31°C° 0.6 mm 2 mps 755 mmHg 82%
    18:00 +29°C° 0.6 mm 2 mps 756 mmHg 89%
    19:00 +27°C° 0.6 mm 1 mps 756 mmHg 96%
    20:00 +27°C° 0.5 mm 1 mps 757 mmHg 96%
    21:00 +27°C° 0.5 mm 1 mps 757 mmHg 97%
    22:00 +27°C° 0.5 mm 1 mps 758 mmHg 97%
    23:00 +27°C° 0.8 mm 1 mps 757 mmHg 98%

    21 November, Wednesday

    Time Temperature Precipitation Wind Pressure Humidity
    00:00 +27°C° 0.8 mm 1 mps 757 mmHg 98%
    01:00 +26°C° 0.8 mm 1 mps 757 mmHg 98%
    02:00 +26°C° 1 mm 1 mps 756 mmHg 99%
    03:00 +26°C° 1 mm 1 mps 756 mmHg 99%
    04:00 +26°C° 1 mm 1 mps 756 mmHg 99%
    05:00 +27°C° 0.4 mm 1 mps 756 mmHg 99%
    06:00 +27°C° 0.4 mm 1 mps 757 mmHg 98%
    07:00 +27°C° 0.4 mm 1 mps 757 mmHg 98%
    08:00 +28°C° 0.2 mm 1 mps 757 mmHg 94%
    09:00 +29°C° 0.2 mm 1 mps 757 mmHg 89%
    10:00 +31°C° 0.2 mm 1 mps 758 mmHg 84%
    11:00 +32°C° 0.1 mm 1 mps 757 mmHg 77%
    12:00 +33°C° 0.1 mm 1 mps 756 mmHg 70%
    13:00 +35°C° 0.1 mm 1 mps 755 mmHg 63%
    14:00 +35°C° 0.4 mm 2 mps 755 mmHg 70%
    15:00 +34°C° 0.4 mm 2 mps 755 mmHg 77%
    16:00 +33°C° 0.4 mm 3 mps 754 mmHg 84%
    17:00 +31°C° 1.6 mm 2 mps 755 mmHg 89%
    18:00 +29°C° 1.6 mm 2 mps 756 mmHg 94%
    19:00 +27°C° 1.6 mm 2 mps 757 mmHg 98%
    20:00 +27°C° 1.9 mm 1 mps 757 mmHg 98%
    21:00 +27°C° 1.9 mm 1 mps 758 mmHg 98%
    22:00 +25°C° 1.9 mm 0 mps 758 mmHg 98%
    23:00 +25°C° 1.3 mm 0 mps 757 mmHg 98%

    22 November, Thursday

    Time Temperature Precipitation Wind Pressure Humidity
    00:00 +27°C° 1.3 mm 1 mps 757 mmHg 98%
    01:00 +27°C° 1.3 mm 1 mps 756 mmHg 98%
    02:00 +27°C° 0.6 mm 1 mps 756 mmHg 99%
    03:00 +26°C° 0.6 mm 1 mps 756 mmHg 99%
    04:00 +26°C° 0.6 mm 1 mps 756 mmHg 99%
    05:00 +27°C° 0.3 mm 1 mps 756 mmHg 98%
    06:00 +27°C° 0.3 mm 1 mps 757 mmHg 97%
    07:00 +27°C° 0.3 mm 1 mps 757 mmHg 96%
    08:00 +29°C° 0.4 mm 1 mps 757 mmHg 87%
    09:00 +31°C° 0.4 mm 1 mps 757 mmHg 79%
    10:00 +33°C° 0.4 mm 1 mps 757 mmHg 70%
    11:00 +34°C° 0.2 mm 1 mps 757 mmHg 69%
    12:00 +35°C° 0.2 mm 2 mps 756 mmHg 68%
    13:00 +36°C° 0.2 mm 2 mps 756 mmHg 67%
    14:00 +35°C° 0.4 mm 2 mps 755 mmHg 72%
    15:00 +34°C° 0.4 mm 2 mps 755 mmHg 77%
    16:00 +32°C° 0.4 mm 2 mps 755 mmHg 81%
    17:00 +30°C° 0.5 mm 2 mps 756 mmHg 87%
    18:00 +29°C° 0.5 mm 2 mps 756 mmHg 92%
    19:00 +27°C° 0.5 mm 1 mps 757 mmHg 97%
    20:00 +27°C° 0.5 mm 1 mps 758 mmHg 97%
    21:00 +27°C° 0.5 mm 1 mps 758 mmHg 98%
    22:00 +25°C° 0.5 mm 0 mps 759 mmHg 98%
    23:00 +26°C° 0.5 mm 1 mps 758 mmHg 98%
    Show more